Location: LDNL
(36.4545°S, 141.6685°E)
Time: 04:15:23
(UTC+10:00)

Courier 1B Rocket - Pass Details

Date: 01 June 2024
Orbit: 920 x 1201 km, 28.3° (Epoch: 14 June)

Event Time Altitude Azimuth Distance (km) Brightness Sun altitude
Exits shadow 05:39:33 16° 316° (NW) 2,636 6.9 -22.9°
Maximum altitude 05:41:29 18° 334° (NNW) 2,553 7.0 -22.6°
Drops below altitude 10° 05:46:19 10° 13° (NNE) 3,116 7.9 -21.6°
Sets 05:50:16 0° 30° (NNE) 4,087 8.9 -20.8°
